Home   Weather   Mesquite   Past weeks

Flag for USA Past Weather in Mesquite, Texas, USA — Yesterday and Last 2 Weeks

Now
84 °F

Sunny.


Feels Like: 92 °F
Forecast: 74 / 91 °F
Wind: 3 mph from East

Location: Mesquite Metro Airport

Current Time: Aug 31, 2016 at 11:20:06 AM

Latest Report: Aug 31, 2016 at 10:50 AM


Visibility: 10 mi

Pressure: 30.02 "Hg

Humidity: 74%

Dew Point: 75 °F

Location of MesquiteLocation

Past Weather in Mesquite — Graph

°F

Mesquite Temperature Yesterday

Maximum temperature yesterday: 91 °F (at 3:50 PM)
Minimum temperature yesterday: 71 °F (at 3:15 AM)
Average temperature yesterday: 78 °F

High & Low Weather Summary for the Past Weeks

 TemperatureHumidityPressure
High93 °F (Aug 25, 3:50 PM)100% (Aug 16, 9:50 AM)30.16 "Hg (Aug 16, 9:50 AM)
Low70 °F (Aug 27, 5:15 AM)43% (Aug 21, 2:50 PM)29.85 "Hg (Aug 20, 5:35 AM)
Average77 °F89%30.03 "Hg
* Reported Aug 16 9:50 AM — Aug 31 9:50 AM, Mesquite, Weather by CustomWeather, © 2016

Note: Actual official high and low records may vary slightly from our data, if they occured in-between our weather recording intervals... More about our weather records

Advertising

Mesquite Weather History for the Previous 24 Hours

Scroll right to see more
 ConditionsComfort  
Time TempWeatherWind HumidityBarometerVisibility
9:50 AM
Wed, Aug 31
82 °FSunny.No wind79%30.01 "Hg10 mi
8:50 AM79 °FSunny.6 mph89%30.01 "Hg10 mi
7:50 AM75 °FPassing clouds.8 mph100%30.01 "Hg10 mi
6:50 AM75 °FClear.3 mph94%30.00 "Hg10 mi
6:15 AM74 °FClear.5 mph98%30.00 "Hg10 mi
5:55 AM74 °FClear.3 mph98%29.99 "Hg10 mi
5:35 AM74 °FClear.3 mph98%29.99 "Hg10 mi
5:15 AM74 °FClear.3 mph98%29.99 "Hg10 mi
4:55 AM74 °FClear.3 mph98%29.99 "Hg10 mi
4:35 AM74 °FClear.3 mph97%30.00 "Hg10 mi
4:15 AM75 °FClear.No wind95%30.00 "Hg10 mi
3:55 AM75 °FClear.No wind95%30.01 "Hg10 mi
3:35 AM75 °FClear.No wind94%30.01 "Hg10 mi
3:15 AM75 °FClear.3 mph94%30.01 "Hg10 mi
2:55 AM76 °FClear.3 mph93%30.01 "Hg10 mi
2:35 AM76 °FClear.No wind92%30.01 "Hg10 mi
2:15 AM77 °FClear.No wind90%30.00 "Hg10 mi
1:55 AM77 °FClear.No wind88%30.01 "Hg10 mi
1:35 AM76 °FClear.3 mph92%30.01 "Hg10 mi
1:15 AM76 °FClear.5 mph95%30.01 "Hg10 mi
12:55 AM77 °FClear.3 mph91%30.01 "Hg10 mi
12:35 AM78 °FClear.5 mph92%30.01 "Hg10 mi
12:15 AM78 °FClear.3 mph93%30.01 "Hg10 mi
11:55 PM
Tue, Aug 30
78 °FClear.No wind93%30.01 "Hg10 mi
11:35 PM78 °FClear.No wind89%30.01 "Hg10 mi
11:15 PM79 °FClear.No wind86%30.01 "Hg10 mi
10:55 PM80 °FClear.No wind81%30.00 "Hg10 mi
10:35 PM81 °FClear.No wind79%30.00 "Hg10 mi
10:15 PM81 °FClear.3 mph79%30.00 "Hg10 mi
9:55 PM82 °FClear.No wind74%29.99 "Hg10 mi
9:35 PM81 °FClear.No wind77%29.99 "Hg10 mi
9:15 PM82 °FClear.No wind74%29.98 "Hg10 mi
8:55 PM83 °FClear.5 mph69%29.97 "Hg10 mi
8:35 PM83 °FSunny.No wind73%29.96 "Hg10 mi
8:15 PM82 °FSunny.No wind77%29.96 "Hg10 mi
7:50 PM82 °FSunny.No wind70%29.95 "Hg10 mi
6:50 PM84 °FSunny.5 mph66%29.94 "Hg10 mi
5:50 PM88 °FScattered clouds.14 mph55%29.94 "Hg10 mi
4:50 PM90 °FPartly sunny.15 mph55%29.95 "Hg10 mi
3:50 PM91 °FScattered clouds.8 mph52%29.97 "Hg10 mi
2:50 PM90 °FPartly sunny.14 mph55%30.00 "Hg10 mi
1:50 PM90 °FBroken clouds.5 mph55%30.02 "Hg10 mi
12:50 PM88 °FSunny.9 mph59%30.05 "Hg10 mi
11:50 AM88 °FSunny.3 mph62%30.07 "Hg10 mi
Weather by CustomWeather, © 2016

See weather overviewHow to use our weather pages